Starlink 5482

operational
NORAD ID: 56358 Int'l Des: 2023-058 Owner: SPXS Country: US Constellation: starlink
LEOCIRCULARRETROGRADESSO

About Starlink 5482

Description loading...

Live Position

Loading 3D Globe...

Upcoming Passes

Altitude History

Altitude vs Time

uPlot chart will show altitude changes over time

Two-Line Element Set

1 56358U 23058AT 26062.49135393 .00000640 00000-0 54398-4 0 9991
2 56358 97.6070 64.1874 0001711 102.3086 257.8330 15.01261752157201
Epoch: Mar 3, 2026 • Age: 38 hours

Current Status

Altitude 566.2 km
Velocity 7.58 km/s
Sub-Earth Point -1.95°S, 130.26°W
Launch Date Apr 27, 2023
Age 2.8 years
Type internet

Technical Details

Classification Payload
Mass 300.00 kg
Dry Mass 260.00 kg
Total Mass 300.00 kg
Length 0.20 m
Diameter 2.80 m
Span 9.00 m
Shape Box + pan
Manufacturer SPXS
Bus Type Starlink
Phase Status In Orbit
Owner/State SPXS/US

Large Constellations

Loading constellations...